QPF
0.21 0.14 0.10 0.07 0.05 0.04 0.04 0.05 0.05 0.04 0.04 0.05 0.05 0.05 0.05 0.04 0.03 0.04 0.08 0.09 0.09 0.08 0.07 0.09 0.14 0.20 0.28 0.35 0.33 0.24 0.18 0.14 0.09 0.07 0.05 0.05 0.05 0.04 0.05 0.06 0.04 0.03 0.03
0.15 0.12 0.08 0.06 0.04 0.03 0.04 0.05 0.05 0.04 0.04 0.04 0.04 0.04 0.04 0.04 0.05 0.06 0.07 0.07 0.08 0.07 0.07 0.08 0.12 0.15 0.24 0.36 0.41 0.31 0.20 0.13 0.10 0.08 0.07 0.06 0.05 0.06 0.06 0.03 0.03 0.03 0.04
0.09 0.08 0.06 0.05 0.04 0.03 0.04 0.05 0.03 0.03 0.03 0.03 0.05 0.05 0.05 0.05 0.05 0.06 0.06 0.05 0.07 0.06 0.07 0.09 0.10 0.12 0.21 0.36 0.36 0.23 0.16 0.13 0.09 0.08 0.07 0.05 0.06 0.08 0.09 0.06 0.05 0.04 0.04
0.06 0.05 0.04 0.04 0.04 0.04 0.04 0.04 0.03 0.03 0.03 0.04 0.06 0.06 0.05 0.05 0.05 0.05 0.06 0.05 0.06 0.06 0.07 0.09 0.09 0.10 0.12 0.17 0.20 0.16 0.14 0.10 0.09 0.06 0.06 0.06 0.06 0.07 0.07 0.06 0.06 0.06 0.05
0.03 0.03 0.04 0.04 0.04 0.04 0.03 0.03 0.03 0.03 0.04 0.05 0.05 0.05 0.05 0.05 0.05 0.05 0.06 0.06 0.07 0.11 0.12 0.10 0.09 0.09 0.09 0.11 0.15 0.14 0.14 0.10 0.06 0.04 0.03 0.03 0.03 0.05 0.05 0.05 0.06 0.05 0.05
0.02 0.03 0.04 0.03 0.04 0.04 0.04 0.03 0.02 0.03 0.04 0.04 0.05 0.06 0.08 0.06 0.05 0.05 0.08 0.07 0.08 0.11 0.14 0.15 0.13 0.10 0.10 0.11 0.12 0.12 0.11 0.07 0.04 0.03 0.02 0.02 0.02 0.04 0.05 0.05 0.05 0.05 0.05
0.02 0.03 0.03 0.04 0.05 0.05 0.04 0.03 0.03 0.04 0.04 0.04 0.05 0.07 0.07 0.08 0.07 0.06 0.09 0.09 0.12 0.14 0.14 0.17 0.15 0.10 0.10 0.10 0.10 0.10 0.08 0.06 0.03 0.03 0.02 0.02 0.02 0.04 0.05 0.06 0.05 0.07 0.08
0.03 0.03 0.04 0.06 0.05 0.04 0.04 0.04 0.05 0.06 0.05 0.04 0.05 0.05 0.05 0.07 0.07 0.05 0.06 0.07 0.09 0.10 0.11 0.12 0.14 0.11 0.11 0.10 0.10 0.08 0.06 0.05 0.03 0.04 0.04 0.04 0.04 0.04 0.05 0.05 0.05 0.07 0.09
0.08 0.07 0.06 0.07 0.05 0.04 0.04 0.04 0.05 0.07 0.06 0.06 0.07 0.05 0.06 0.06 0.07 0.05 0.05 0.05 0.05 0.06 0.06 0.08 0.12 0.15 0.11 0.08 0.08 0.08 0.08 0.06 0.02 0.03 0.04 0.05 0.07 0.07 0.07 0.06 0.06 0.07 0.09
0.08 0.08 0.07 0.06 0.05 0.03 0.04 0.05 0.05 0.06 0.05 0.05 0.05 0.05 0.05 0.06 0.07 0.08 0.08 0.07 0.06 0.06 0.07 0.07 0.09 0.11 0.10 0.08 0.09 0.09 0.10 0.08 0.02 0.02 0.03 0.04 0.07 0.11 0.14 0.15 0.15 0.12 0.09
0.09 0.08 0.06 0.06 0.04 0.03 0.04 0.05 0.05 0.06 0.06 0.05 0.05 0.05 0.04 0.05 0.06 0.08 0.08 0.10 0.09 0.08 0.08 0.08 0.08 0.08 0.09 0.09 0.10 0.09 0.08 0.13 0.09 0.02 0.02 0.03 0.04 0.08 0.12 0.17 0.19 0.17 0.14
0.10 0.11 0.10 0.08 0.07 0.05 0.04 0.05 0.05 0.04 0.04 0.04 0.04 0.04 0.04 0.04 0.05 0.07 0.09 0.11 0.12 0.10 0.10 0.09 0.09 0.09 0.06 0.06 0.07 0.05 0.03 0.07 0.07 0.03 0.03 0.04 0.04 0.06 0.08 0.11 0.11 0.13 0.14
0.07 0.11 0.14 0.13 0.12 0.09 0.07 0.06 0.05 0.04 0.04 0.05 0.06 0.05 0.04 0.05 0.07 0.09 0.10 0.14 0.15 0.11 0.09 0.10 0.10 0.09 0.05 0.04 0.04 0.03 0.02 0.03 0.04 0.03 0.05 0.07 0.07 0.08 0.09 0.09 0.10 0.13 0.13
0.08 0.10 0.13 0.16 0.15 0.11 0.09 0.09 0.10 0.07 0.07 0.07 0.07 0.05 0.04 0.06 0.08 0.11 0.13 0.16 0.14 0.09 0.08 0.10 0.10 0.10 0.06 0.05 0.05 0.03 0.03 0.04 0.04 0.04 0.05 0.06 0.06 0.08 0.10 0.09 0.09 0.11 0.13
0.06 0.07 0.07 0.08 0.06 0.07 0.07 0.07 0.08 0.08 0.06 0.04 0.04 0.05 0.06 0.08 0.10 0.14 0.16 0.16 0.14 0.10 0.10 0.10 0.10 0.08 0.07 0.06 0.06 0.04 0.05 0.04 0.04 0.04 0.05 0.07 0.09 0.12 0.15 0.14 0.13 0.13 0.11
0.04 0.06 0.05 0.05 0.04 0.04 0.04 0.04 0.05 0.05 0.03 0.02 0.03 0.04 0.04 0.07 0.10 0.13 0.13 0.14 0.16 0.14 0.11 0.09 0.09 0.09 0.08 0.06 0.05 0.05 0.04 0.04 0.04 0.05 0.06 0.08 0.12 0.16 0.17 0.15 0.14 0.12 0.11
0.03 0.03 0.03 0.03 0.03 0.03 0.04 0.04 0.04 0.05 0.04 0.04 0.03 0.04 0.06 0.08 0.11 0.11 0.09 0.10 0.13 0.13 0.13 0.11 0.10 0.10 0.09 0.07 0.06 0.06 0.05 0.05 0.05 0.06 0.07 0.09 0.09 0.12 0.14 0.13 0.12 0.11 0.09
0.02 0.02 0.02 0.02 0.04 0.05 0.05 0.05 0.04 0.04 0.03 0.03 0.03 0.04 0.05 0.07 0.09 0.09 0.08 0.08 0.08 0.09 0.11 0.13 0.13 0.11 0.09 0.07 0.06 0.07 0.08 0.07 0.07 0.08 0.07 0.07 0.06 0.05 0.10 0.15 0.14 0.11 0.11
0.01 0.01 0.02 0.02 0.04 0.06 0.06 0.04 0.03 0.04 0.04 0.03 0.02 0.02 0.03 0.06 0.07 0.06 0.05 0.05 0.08 0.11 0.12 0.12 0.12 0.11 0.10 0.09 0.08 0.07 0.09 0.11 0.09 0.08 0.08 0.06 0.06 0.06 0.09 0.14 0.17 0.14 0.15
0.01 0.01 0.01 0.01 0.03 0.03 0.03 0.03 0.03 0.05 0.05 0.05 0.04 0.03 0.04 0.06 0.07 0.05 0.04 0.03 0.05 0.07 0.07 0.07 0.07 0.08 0.08 0.08 0.08 0.08 0.09 0.09 0.07 0.07 0.08 0.08 0.10 0.11 0.10 0.09 0.09 0.11 0.16
0.01 0.01 0.01 0.01 0.01 0.02 0.02 0.02 0.03 0.05 0.05 0.05 0.05 0.05 0.05 0.05 0.06 0.05 0.04 0.03 0.03 0.03 0.03 0.04 0.06 0.07 0.06 0.06 0.08 0.09 0.11 0.09 0.07 0.06 0.06 0.06 0.07 0.08 0.07 0.06 0.06 0.07 0.10
0.01 0.01 0.01 0.01 0.01 0.01 0.01 0.02 0.02 0.03 0.03 0.03 0.06 0.06 0.05 0.04 0.04 0.04 0.04 0.03 0.03 0.02 0.02 0.03 0.05 0.08 0.08 0.08 0.08 0.08 0.09 0.09 0.08 0.06 0.05 0.05 0.06 0.07 0.07 0.07 0.08 0.09 0.10
0.01 0.01 0.00 0.01 0.01 0.01 0.01 0.01 0.01 0.01 0.01 0.03 0.04 0.06 0.05 0.04 0.03 0.03 0.04 0.04 0.04 0.03 0.02 0.04 0.06 0.06 0.07 0.10 0.10 0.08 0.06 0.04 0.05 0.05 0.05 0.05 0.05 0.06 0.06 0.06 0.06 0.08 0.10
0.01 0.00 0.00 0.00 0.01 0.01 0.01 0.01 0.01 0.01 0.01 0.02 0.03 0.05 0.06 0.06 0.05 0.05 0.04 0.04 0.04 0.04 0.05 0.06 0.07 0.07 0.07 0.08 0.10 0.09 0.06 0.04 0.03 0.04 0.05 0.05 0.04 0.04 0.04 0.04 0.05 0.05 0.06
0.00 0.00 0.00 0.00 0.00 0.01 0.01 0.01 0.01 0.01 0.02 0.03 0.04 0.05 0.07 0.08 0.08 0.07 0.06 0.05 0.06 0.06 0.05 0.04 0.04 0.05 0.05 0.06 0.07 0.08 0.07 0.06 0.04 0.04 0.05 0.06 0.05 0.03 0.03 0.03 0.04 0.05 0.05
0.00 0.00 0.00 0.00 0.00 0.00 0.01 0.01 0.01 0.01 0.02 0.02 0.04 0.04 0.06 0.10 0.12 0.12 0.08 0.07 0.09 0.06 0.05 0.05 0.04 0.04 0.03 0.04 0.05 0.06 0.06 0.07 0.07 0.07 0.05 0.05 0.04 0.03 0.03 0.03 0.05 0.05 0.05
MSLP
1001.81 1001.10 1000.61 1000.34 1000.27 1000.34 1000.52 1000.78 1001.11 1001.52 1002.04 1002.69 1003.49 1004.40 1005.39 1006.39 1007.35 1008.20 1008.93 1009.53 1010.05 1010.52 1010.98 1011.46 1011.97 1012.50 1013.03 1013.52 1013.96 1014.33 1014.64 1014.91 1015.17 1015.43 1015.72 1016.03 1016.36 1016.67 1016.97 1017.23 1017.45 1017.65 1017.82
1001.00 1000.19 999.64 999.36 999.32 999.47 999.75 1000.12 1000.59 1001.14 1001.80 1002.60 1003.52 1004.55 1005.64 1006.72 1007.73 1008.62 1009.37 1009.99 1010.51 1010.99 1011.45 1011.94 1012.45 1012.98 1013.49 1013.96 1014.37 1014.71 1014.99 1015.25 1015.50 1015.76 1016.06 1016.38 1016.71 1017.03 1017.31 1017.56 1017.76 1017.93 1018.08
999.83 998.97 998.40 998.17 998.22 998.51 998.96 999.53 1000.18 1000.92 1001.76 1002.71 1003.75 1004.88 1006.03 1007.15 1008.18 1009.08 1009.82 1010.43 1010.95 1011.41 1011.88 1012.37 1012.88 1013.41 1013.91 1014.37 1014.76 1015.09 1015.36 1015.61 1015.86 1016.13 1016.44 1016.76 1017.09 1017.40 1017.67 1017.89 1018.07 1018.22 1018.35
998.48 997.60 997.07 996.94 997.14 997.62 998.29 999.09 999.97 1000.91 1001.92 1003.00 1004.15 1005.34 1006.52 1007.64 1008.66 1009.53 1010.24 1010.83 1011.33 1011.79 1012.26 1012.75 1013.27 1013.80 1014.31 1014.76 1015.15 1015.47 1015.75 1016.00 1016.26 1016.54 1016.85 1017.18 1017.50 1017.80 1018.05 1018.25 1018.40 1018.53 1018.66
997.18 996.31 995.88 995.88 996.28 996.97 997.88 998.90 999.99 1001.11 1002.27 1003.45 1004.66 1005.87 1007.04 1008.14 1009.12 1009.95 1010.63 1011.20 1011.68 1012.14 1012.61 1013.11 1013.64 1014.17 1014.68 1015.14 1015.54 1015.87 1016.15 1016.42 1016.69 1016.98 1017.30 1017.62 1017.93 1018.21 1018.43 1018.61 1018.75 1018.87 1018.99
996.15 995.36 995.03 995.21 995.80 996.70 997.81 999.03 1000.28 1001.54 1002.78 1004.01 1005.23 1006.42 1007.56 1008.61 1009.54 1010.34 1010.99 1011.54 1012.03 1012.49 1012.97 1013.48 1014.02 1014.55 1015.07 1015.52 1015.92 1016.26 1016.55 1016.83 1017.11 1017.42 1017.74 1018.06 1018.36 1018.61 1018.81 1018.97 1019.09 1019.20 1019.33
995.60 994.90 994.72 995.05 995.81 996.89 998.15 999.50 1000.85 1002.16 1003.43 1004.65 1005.83 1006.98 1008.06 1009.06 1009.94 1010.70 1011.34 1011.89 1012.39 1012.87 1013.36 1013.88 1014.42 1014.96 1015.46 1015.91 1016.30 1016.63 1016.93 1017.22 1017.52 1017.83 1018.15 1018.46 1018.74 1018.98 1019.15 1019.28 1019.39 1019.50 1019.63
995.63 995.04 994.99 995.47 996.36 997.55 998.90 1000.30 1001.66 1002.96 1004.19 1005.35 1006.47 1007.53 1008.55 1009.49 1010.34 1011.08 1011.72 1012.28 1012.80 1013.30 1013.81 1014.33 1014.87 1015.38 1015.87 1016.29 1016.66 1016.99 1017.28 1017.56 1017.86 1018.17 1018.48 1018.79 1019.05 1019.26 1019.42 1019.52 1019.62 1019.71 1019.85
996.23 995.77 995.85 996.43 997.41 998.64 1000.00 1001.37 1002.69 1003.91 1005.05 1006.12 1007.14 1008.12 1009.07 1009.96 1010.77 1011.51 1012.15 1012.74 1013.27 1013.79 1014.31 1014.82 1015.34 1015.83 1016.27 1016.67 1017.00 1017.29 1017.56 1017.83 1018.12 1018.42 1018.73 1019.01 1019.26 1019.45 1019.58 1019.67 1019.75 1019.84 1019.98
997.30 996.97 997.16 997.82 998.82 1000.05 1001.36 1002.65 1003.86 1004.97 1005.99 1006.95 1007.87 1008.77 1009.65 1010.49 1011.29 1012.02 1012.67 1013.26 1013.81 1014.33 1014.84 1015.34 1015.82 1016.27 1016.67 1017.01 1017.31 1017.56 1017.80 1018.04 1018.31 1018.59 1018.88 1019.15 1019.38 1019.55 1019.67 1019.74 1019.80 1019.89 1020.02
998.71 998.51 998.78 999.48 1000.48 1001.64 1002.86 1004.03 1005.12 1006.10 1007.00 1007.84 1008.67 1009.50 1010.32 1011.13 1011.90 1012.62 1013.27 1013.86 1014.40 1014.91 1015.39 1015.86 1016.30 1016.69 1017.04 1017.34 1017.58 1017.79 1018.00 1018.21 1018.45 1018.71 1018.97 1019.23 1019.44 1019.59 1019.70 1019.76 1019.81 1019.89 1020.01
1000.33 1000.24 1000.58 1001.28 1002.24 1003.31 1004.41 1005.45 1006.40 1007.26 1008.04 1008.80 1009.55 1010.32 1011.10 1011.87 1012.61 1013.30 1013.93 1014.49 1015.00 1015.48 1015.93 1016.35 1016.74 1017.09 1017.39 1017.64 1017.85 1018.02 1018.19 1018.37 1018.58 1018.81 1019.06 1019.29 1019.48 1019.63 1019.73 1019.79 1019.83 1019.89 1020.00
1002.04 1002.05 1002.43 1003.12 1004.00 1004.97 1005.94 1006.85 1007.67 1008.41 1009.10 1009.78 1010.47 1011.19 1011.93 1012.66 1013.37 1014.02 1014.61 1015.13 1015.60 1016.03 1016.43 1016.81 1017.15 1017.46 1017.73 1017.95 1018.12 1018.27 1018.42 1018.57 1018.75 1018.95 1019.17 1019.38 1019.57 1019.71 1019.80 1019.86 1019.90 1019.95 1020.04
1003.78 1003.87 1004.27 1004.91 1005.71 1006.56 1007.40 1008.17 1008.88 1009.52 1010.14 1010.76 1011.41 1012.08 1012.78 1013.47 1014.13 1014.74 1015.27 1015.75 1016.16 1016.54 1016.89 1017.22 1017.53 1017.82 1018.06 1018.27 1018.43 1018.57 1018.70 1018.83 1018.99 1019.16 1019.35 1019.54 1019.71 1019.85 1019.94 1020.00 1020.04 1020.08 1020.15
1005.53 1005.67 1006.05 1006.63 1007.32 1008.05 1008.76 1009.42 1010.02 1010.58 1011.13 1011.70 1012.30 1012.94 1013.59 1014.23 1014.84 1015.39 1015.87 1016.29 1016.65 1016.98 1017.30 1017.60 1017.89 1018.16 1018.41 1018.61 1018.79 1018.93 1019.05 1019.17 1019.30 1019.44 1019.60 1019.76 1019.91 1020.03 1020.13 1020.19 1020.24 1020.27 1020.32
1007.27 1007.42 1007.76 1008.26 1008.83 1009.43 1010.02 1010.57 1011.08 1011.57 1012.06 1012.57 1013.12 1013.70 1014.30 1014.89 1015.44 1015.93 1016.36 1016.74 1017.06 1017.36 1017.65 1017.94 1018.23 1018.51 1018.77 1018.99 1019.18 1019.33 1019.45 1019.56 1019.66 1019.77 1019.89 1020.01 1020.13 1020.24 1020.32 1020.39 1020.43 1020.47 1020.50
1008.97 1009.10 1009.38 1009.78 1010.23 1010.72 1011.19 1011.64 1012.06 1012.48 1012.90 1013.35 1013.84 1014.36 1014.89 1015.42 1015.91 1016.35 1016.75 1017.09 1017.39 1017.68 1017.97 1018.26 1018.56 1018.86 1019.14 1019.39 1019.59 1019.75 1019.88 1019.97 1020.04 1020.10 1020.16 1020.23 1020.31 1020.38 1020.45 1020.50 1020.55 1020.58 1020.61
1010.58 1010.67 1010.87 1011.17 1011.51 1011.89 1012.26 1012.63 1012.98 1013.32 1013.68 1014.06 1014.47 1014.91 1015.36 1015.82 1016.25 1016.66 1017.02 1017.35 1017.66 1017.96 1018.25 1018.56 1018.88 1019.19 1019.49 1019.76 1019.98 1020.15 1020.26 1020.33 1020.36 1020.37 1020.37 1020.38 1020.39 1020.41 1020.44 1020.48 1020.52 1020.55 1020.58
1012.03 1012.07 1012.20 1012.40 1012.65 1012.94 1013.24 1013.54 1013.83 1014.11 1014.40 1014.71 1015.03 1015.38 1015.75 1016.12 1016.50 1016.87 1017.22 1017.55 1017.87 1018.19 1018.51 1018.83 1019.16 1019.48 1019.79 1020.07 1020.30 1020.47 1020.57 1020.61 1020.60 1020.55 1020.48 1020.40 1020.34 1020.30 1020.28 1020.29 1020.31 1020.34 1020.36
1013.25 1013.24 1013.30 1013.43 1013.61 1013.85 1014.10 1014.37 1014.62 1014.86 1015.09 1015.31 1015.55 1015.80 1016.07 1016.38 1016.70 1017.03 1017.37 1017.71 1018.05 1018.38 1018.72 1019.05 1019.39 1019.71 1020.02 1020.29 1020.51 1020.67 1020.76 1020.77 1020.72 1020.61 1020.47 1020.32 1020.18 1020.06 1019.98 1019.93 1019.93 1019.94 1019.97
1014.18 1014.13 1014.14 1014.23 1014.38 1014.59 1014.84 1015.10 1015.34 1015.55 1015.73 1015.89 1016.04 1016.20 1016.38 1016.61 1016.87 1017.17 1017.50 1017.84 1018.19 1018.54 1018.89 1019.22 1019.55 1019.86 1020.14 1020.40 1020.60 1020.75 1020.83 1020.82 1020.74 1020.59 1020.39 1020.17 1019.94 1019.74 1019.59 1019.48 1019.43 1019.42 1019.43
1014.79 1014.73 1014.73 1014.79 1014.95 1015.17 1015.44 1015.71 1015.97 1016.18 1016.34 1016.44 1016.52 1016.59 1016.70 1016.84 1017.05 1017.31 1017.62 1017.96 1018.32 1018.67 1019.00 1019.32 1019.62 1019.90 1020.15 1020.38 1020.58 1020.71 1020.79 1020.78 1020.69 1020.52 1020.29 1020.01 1019.72 1019.44 1019.20 1019.03 1018.91 1018.85 1018.84
1015.10 1015.06 1015.06 1015.14 1015.31 1015.57 1015.88 1016.20 1016.49 1016.72 1016.87 1016.94 1016.97 1016.98 1017.01 1017.09 1017.24 1017.46 1017.75 1018.07 1018.41 1018.75 1019.06 1019.35 1019.61 1019.84 1020.07 1020.27 1020.45 1020.59 1020.68 1020.70 1020.63 1020.47 1020.22 1019.92 1019.58 1019.23 1018.92 1018.66 1018.47 1018.34 1018.27
1015.19 1015.19 1015.21 1015.31 1015.51 1015.80 1016.16 1016.53 1016.87 1017.13 1017.29 1017.35 1017.35 1017.32 1017.29 1017.32 1017.43 1017.61 1017.86 1018.16 1018.48 1018.79 1019.06 1019.31 1019.52 1019.71 1019.90 1020.08 1020.26 1020.42 1020.54 1020.60 1020.58 1020.46 1020.24 1019.94 1019.58 1019.19 1018.80 1018.45 1018.17 1017.95 1017.80
1015.13 1015.17 1015.22 1015.35 1015.57 1015.90 1016.29 1016.71 1017.09 1017.39 1017.57 1017.65 1017.64 1017.58 1017.53 1017.52 1017.59 1017.74 1017.96 1018.23 1018.51 1018.79 1019.02 1019.22 1019.39 1019.54 1019.69 1019.85 1020.03 1020.22 1020.39 1020.52 1020.57 1020.51 1020.35 1020.07 1019.71 1019.30 1018.85 1018.43 1018.04 1017.72 1017.47
1014.98 1015.07 1015.15 1015.29 1015.52 1015.87 1016.28 1016.73 1017.14 1017.48 1017.70 1017.79 1017.79 1017.74 1017.68 1017.65 1017.70 1017.83 1018.02 1018.26 1018.51 1018.75 1018.95 1019.10 1019.22 1019.33 1019.45 1019.61 1019.80 1020.01 1020.24 1020.43 1020.56 1020.59 1020.49 1020.27 1019.94 1019.51 1019.03 1018.54 1018.06 1017.63 1017.26
Thickness
5773 5777 5777 5777 5777 5777 5776 5776 5776 5776 5776 5776 5776 5776 5777 5777 5777 5777 5776 5775 5774 5774 5774 5775 5775 5774 5772 5770 5767 5764 5762 5760 5759 5758 5757 5757 5755 5754 5753 5752 5751 5750 5748
5776 5777 5777 5776 5775 5775 5775 5775 5775 5775 5775 5774 5774 5775 5775 5775 5776 5775 5775 5774 5774 5774 5773 5773 5774 5773 5770 5767 5765 5763 5762 5760 5759 5757 5756 5755 5754 5753 5751 5750 5749 5748 5747
5776 5776 5776 5775 5774 5774 5774 5774 5774 5774 5774 5773 5773 5774 5774 5774 5774 5774 5774 5774 5773 5773 5773 5772 5772 5771 5769 5766 5764 5762 5761 5759 5757 5756 5755 5753 5752 5751 5750 5749 5748 5746 5745
5776 5776 5776 5775 5774 5774 5774 5773 5773 5773 5773 5773 5772 5773 5773 5773 5773 5773 5772 5773 5773 5773 5772 5771 5770 5768 5767 5765 5762 5761 5759 5757 5756 5754 5753 5752 5751 5750 5749 5748 5746 5745 5744
5776 5776 5775 5775 5774 5773 5773 5772 5772 5772 5772 5772 5772 5772 5772 5772 5772 5772 5772 5772 5772 5772 5771 5770 5768 5767 5765 5763 5761 5759 5757 5756 5754 5753 5752 5751 5750 5749 5748 5746 5745 5744 5742
5776 5776 5775 5775 5774 5773 5772 5772 5772 5771 5771 5771 5771 5771 5772 5772 5772 5771 5771 5771 5771 5771 5770 5768 5767 5765 5764 5762 5760 5759 5757 5755 5753 5752 5750 5749 5748 5747 5746 5745 5744 5742 5741
5775 5776 5775 5774 5773 5772 5772 5771 5771 5771 5771 5771 5771 5771 5772 5772 5771 5771 5770 5770 5770 5769 5768 5766 5765 5764 5762 5761 5759 5758 5756 5754 5752 5751 5749 5748 5747 5746 5745 5744 5742 5741 5739
5775 5775 5774 5774 5773 5772 5771 5771 5771 5771 5771 5771 5771 5772 5772 5772 5771 5770 5770 5769 5769 5768 5766 5765 5764 5763 5760 5759 5758 5757 5755 5753 5751 5749 5748 5747 5746 5745 5744 5743 5741 5740 5739
5775 5774 5773 5772 5772 5771 5771 5771 5771 5771 5771 5771 5771 5772 5772 5772 5771 5770 5770 5769 5768 5767 5766 5764 5764 5763 5759 5758 5757 5756 5754 5752 5750 5749 5747 5746 5745 5744 5743 5742 5741 5739 5738
5773 5772 5771 5771 5771 5770 5770 5770 5770 5771 5771 5771 5771 5771 5771 5771 5771 5770 5769 5768 5767 5766 5765 5763 5762 5761 5759 5757 5756 5755 5753 5751 5749 5747 5746 5745 5744 5743 5742 5741 5740 5739 5737
5771 5771 5771 5770 5770 5769 5769 5769 5769 5769 5770 5769 5769 5770 5770 5770 5769 5769 5768 5767 5766 5765 5764 5762 5761 5759 5758 5756 5755 5753 5752 5749 5748 5747 5746 5744 5743 5742 5742 5741 5739 5738 5737
5768 5769 5770 5770 5769 5769 5769 5768 5768 5768 5768 5768 5768 5768 5768 5768 5768 5768 5767 5766 5765 5764 5763 5761 5760 5759 5757 5755 5754 5752 5750 5749 5747 5746 5745 5744 5743 5742 5741 5740 5739 5738 5736
5769 5770 5770 5770 5769 5768 5768 5767 5767 5767 5767 5767 5767 5767 5767 5767 5767 5766 5766 5765 5764 5763 5761 5760 5758 5757 5756 5754 5752 5750 5749 5748 5746 5745 5744 5743 5743 5742 5741 5740 5739 5737 5736
5770 5770 5771 5771 5769 5768 5768 5767 5766 5766 5766 5766 5766 5767 5766 5766 5765 5765 5765 5764 5763 5761 5760 5759 5757 5756 5754 5752 5751 5749 5747 5746 5744 5743 5742 5742 5742 5741 5740 5739 5738 5737 5736
5770 5771 5771 5771 5769 5769 5768 5767 5767 5766 5766 5766 5766 5766 5766 5765 5765 5764 5764 5763 5762 5760 5759 5758 5756 5755 5753 5750 5749 5747 5746 5744 5742 5742 5741 5741 5741 5740 5740 5739 5738 5737 5736
5771 5771 5771 5770 5770 5769 5768 5767 5767 5767 5766 5766 5766 5766 5766 5765 5765 5764 5762 5762 5761 5760 5758 5757 5755 5753 5751 5749 5747 5745 5744 5742 5740 5740 5739 5739 5739 5739 5739 5738 5737 5736 5735
5772 5772 5771 5771 5770 5769 5768 5768 5768 5767 5767 5767 5766 5766 5766 5765 5764 5763 5762 5760 5759 5758 5757 5755 5754 5751 5749 5747 5745 5743 5742 5740 5739 5738 5737 5737 5737 5736 5736 5736 5735 5734 5734
5774 5773 5772 5773 5771 5770 5769 5769 5769 5768 5768 5767 5767 5766 5765 5765 5764 5763 5761 5760 5759 5757 5756 5754 5752 5749 5747 5745 5743 5741 5740 5739 5737 5736 5734 5734 5733 5733 5733 5733 5732 5732 5732
5776 5774 5772 5772 5771 5771 5770 5770 5769 5769 5768 5767 5767 5766 5765 5765 5764 5763 5761 5759 5758 5757 5755 5753 5750 5748 5744 5742 5741 5739 5738 5737 5736 5734 5733 5732 5731 5730 5730 5730 5730 5729 5729
5778 5775 5773 5772 5771 5771 5770 5769 5768 5768 5767 5767 5766 5766 5765 5764 5763 5762 5760 5759 5757 5755 5753 5751 5748 5746 5743 5741 5739 5737 5735 5734 5733 5731 5730 5729 5729 5728 5727 5727 5726 5726 5726
5778 5776 5774 5772 5772 5771 5769 5767 5765 5764 5765 5765 5765 5765 5764 5763 5762 5761 5760 5758 5756 5754 5752 5750 5747 5743 5741 5739 5736 5731 5730 5731 5730 5729 5728 5727 5726 5725 5724 5724 5723 5722 5722
5779 5777 5776 5774 5773 5772 5771 5769 5767 5766 5765 5765 5764 5764 5763 5763 5762 5761 5759 5757 5755 5752 5750 5748 5746 5741 5739 5738 5734 5728 5723 5723 5725 5726 5725 5724 5723 5722 5721 5720 5719 5718 5718
5780 5779 5779 5776 5774 5773 5772 5770 5768 5766 5764 5763 5762 5762 5762 5762 5761 5759 5758 5756 5753 5751 5748 5746 5745 5741 5737 5736 5735 5730 5722 5718 5718 5721 5721 5721 5720 5719 5718 5717 5716 5716 5715
5784 5783 5781 5778 5776 5775 5773 5770 5767 5764 5761 5761 5761 5761 5761 5761 5759 5758 5756 5754 5752 5750 5747 5746 5744 5742 5739 5734 5733 5731 5728 5725 5718 5714 5716 5717 5716 5715 5714 5714 5712 5712 5711
5788 5785 5783 5780 5777 5775 5774 5771 5768 5765 5764 5763 5762 5760 5759 5759 5758 5756 5755 5753 5751 5749 5747 5745 5743 5742 5739 5735 5732 5730 5726 5723 5721 5715 5711 5711 5712 5712 5711 5710 5709 5708 5708
5789 5787 5784 5780 5777 5776 5774 5772 5769 5766 5764 5762 5760 5758 5757 5757 5756 5755 5753 5752 5749 5747 5746 5744 5742 5741 5739 5736 5733 5730 5727 5723 5719 5716 5711 5708 5706 5707 5707 5706 5705 5704 5704